Location: Saint John
(45.2733°N, 66.0633°W)
Time: 14:34:20
(UTC-04:00)

ISS - Visible Passes

Search period start: 06 December 2021 00:00
Search period end: 16 December 2021 00:00
Orbit: 417 x 422 km, 51.6° (Epoch: 06 December)

Date Brightness Start Highest point End Pass type
(mag) Time Alt. Az. Time Alt. Az. Time Alt. Az.
06 Dec -3.8 17:40:04 10° WNW 17:43:27 88° NNE 17:46:51 10° ESE visible
06 Dec -0.9 19:17:51 10° W 19:19:52 15° SW 19:20:29 14° SSW visible
07 Dec -1.4 18:29:52 10° W 18:32:38 24° SW 18:35:24 10° SSE visible
08 Dec -2.1 17:42:11 10° WNW 17:45:21 37° SW 17:48:30 10° SSE visible
10 Dec -0.5 17:45:01 10° W 17:47:00 15° SW 17:48:59 10° S visible
